Location: Unspecified
(41.5516°N, 88.1098°W)
Time: 19:51:56
(UTC-05:00)

Resurs 1-4 Rocket - Visible Passes

Search period start: 26 July 2017 00:00
Search period end: 05 August 2017 00:00
Orbit: 800 x 814 km, 98.5° (Epoch: 26 July)

Date Brightness Start Highest point End Pass type
(mag) Time Alt. Az. Time Alt. Az. Time Alt. Az.
26 Jul 2.2 03:04:26 10° NNE 03:09:43 69° ESE 03:11:36 40° S visible
26 Jul 3.9 04:45:46 10° NNW 04:48:57 16° WNW 04:52:08 10° W visible
27 Jul 3.0 02:40:06 10° NNE 02:45:04 41° E 02:46:40 32° SE visible
27 Jul 3.3 04:20:23 10° N 04:24:41 26° WNW 04:27:45 15° WSW visible
28 Jul 3.7 02:16:05 10° NE 02:20:20 24° E 02:21:45 22° ESE visible
28 Jul 2.7 03:55:22 10° N 04:00:18 42° WNW 04:02:48 25° WSW visible
29 Jul 4.3 01:52:42 10° ENE 01:55:30 14° E 01:56:48 13° ESE visible
29 Jul 2.1 03:30:36 10° N 03:35:51 70° WNW 03:37:53 37° SW visible
30 Jul 2.2 03:06:01 10° NNE 03:11:18 72° ESE 03:12:57 44° S visible
30 Jul 3.9 04:47:27 10° NNW 04:50:31 16° WNW 04:53:34 10° W visible
31 Jul 2.9 02:41:40 10° NNE 02:46:40 42° E 02:48:01 35° SE visible
31 Jul 3.4 04:22:01 10° NNW 04:26:15 25° WNW 04:29:05 16° WSW visible
01 Aug 3.6 02:17:36 10° NE 02:21:56 25° E 02:23:05 23° ESE visible
01 Aug 2.7 03:56:59 10° N 04:01:53 40° WNW 04:04:09 26° WSW visible
02 Aug 4.2 01:54:09 10° NE 01:57:07 15° E 01:58:08 14° ESE visible
02 Aug 2.1 03:32:11 10° N 03:37:25 67° WNW 03:39:13 40° SW visible
03 Aug 2.1 03:07:36 10° NNE 03:12:53 74° ESE 03:14:17 49° S visible
03 Aug 4.0 04:49:07 10° NNW 04:52:04 15° WNW 04:55:00 10° W visible
04 Aug 2.8 02:43:14 10° NNE 02:48:15 44° E 02:49:20 39° SE visible
04 Aug 3.4 04:23:38 10° NNW 04:27:48 24° WNW 04:30:24 17° WSW visible
